START_TIME,STEP,MOV.,M35,t_acc.,PL05,t_acc.,PL06,t_acc.,PL07,t_acc.
1980-11-16 06:00:12.500 ,5,0,0.,4.8,0.,4.8,1.,4.8,0.,4.8
1980-11-16 06:00:17.300 ,5,0,0.,4.8,0.,4.8,0.,4.8,0.,4.8
1980-11-16 06:00:22.100 ,5,0,0.,4.8,0.,4.8,0.,4.8,1.,4.8
1980-11-16 06:00:26.900 ,5,0,0.,4.8,0.,4.8,2.,4.8,0.,4.8
1980-11-16 06:00:31.700 ,5,0,0.,4.8,2.,4.8,0.,4.8,0.,4.8
1980-11-16 06:00:36.500 ,6,0,0.,4.8,0.,4.8,0.,4.8,0.,4.8
1980-11-16 06:00:41.300 ,6,0,0.,4.8,2.,4.8,1.,4.8,0.,4.8
1980-11-16 06:00:46.100 ,6,0,0.,4.8,0.,4.8,0.,4.8,1.,4.8
1980-11-16 06:00:50.900 ,6,0,0.,4.8,0.,4.8,0.,4.8,0.,4.8
1980-11-16 06:00:55.700 ,6,0,0.,4.8,2.,4.8,0.,4.8,0.,4.8
1980-11-16 06:01:00.500 ,6,0,0.,4.8,2.,4.8,0.,4.8,0.,4.8
1980-11-16 06:01:05.300 ,6,0,0.,4.8,0.,4.8,0.,4.8,0.,4.8
1980-11-16 06:01:10.100 ,6,0,0.,4.8,0.,4.8,0.,4.8,0.,4.8
1980-11-16 06:01:14.900 ,6,0,0.,4.8,0.,4.8,1.,4.8,0.,4.8
1980-11-16 06:01:19.700 ,6,0,0.,4.8,2.,4.8,2.,4.8,0.,4.8
1980-11-16 06:01:24.500 ,7,0,0.,4.8,1.,4.8,1.,4.8,0.,4.8
1980-11-16 06:01:29.300 ,7,0,0.,4.8,0.,4.8,1.,4.8,0.,4.8
1980-11-16 06:01:34.100 ,7,0,0.,4.8,0.,4.8,0.,4.8,1.,4.8
1980-11-16 06:01:38.900 ,7,0,0.,4.8,0.,4.8,0.,4.8,0.,4.8
1980-11-16 06:01:43.700 ,7,0,0.,4.8,1.,4.8,1.,4.8,0.,4.8
1980-11-16 06:01:48.500 ,7,0,0.,4.8,0.,4.8,3.,4.8,0.,4.8
1980-11-16 06:01:53.300 ,7,0,0.,4.8,0.,4.8,1.,4.8,1.,4.8
1980-11-16 06:01:58.100 ,7,0,0.,4.8,2.,4.8,1.,4.8,1.,4.8
1980-11-16 06:02:02.900 ,7,0,0.,4.8,0.,4.8,1.,4.8,0.,4.8
1980-11-16 06:02:07.700 ,7,0,0.,4.8,0.,4.8,2.,4.8,0.,4.8
1980-11-16 06:02:12.500 ,7,0,0.,4.8,0.,4.8,0.,4.8,1.,4.8
1980-11-16 06:02:17.300 ,7,0,0.,4.8,0.,4.8,0.,4.8,0.,4.8
1980-11-16 06:02:22.100 ,7,0,0.,4.8,0.,4.8,1.,4.8,0.,4.8
1980-11-16 06:02:26.900 ,7,0,0.,4.8,0.,4.8,2.,4.8,0.,4.8
1980-11-16 06:02:31.700 ,7,0,0.,4.8,1.,4.8,1.,4.8,1.,4.8
1980-11-16 06:02:36.500 ,7,0,0.,4.8,0.,4.8,0.,4.8,0.,4.8
1980-11-16 06:02:41.300 ,7,0,0.,4.8,0.,4.8,0.,4.8,0.,4.8
1980-11-16 06:02:46.100 ,7,0,0.,4.8,0.,4.8,0.,4.8,1.,4.8
1980-11-16 06:02:50.900 ,7,0,0.,4.8,0.,4.8,0.,4.8,0.,4.8
1980-11-16 06:02:55.700 ,7,0,0.,4.8,0.,4.8,1.,4.8,0.,4.8
1980-11-16 06:03:00.500 ,6,0,0.,4.8,1.,4.8,0.,4.8,1.,4.8
1980-11-16 06:03:05.300 ,6,0,0.,4.8,0.,4.8,0.,4.8,1.,4.8
1980-11-16 06:03:10.100 ,6,0,0.,4.8,0.,4.8,0.,4.8,0.,4.8
1980-11-16 06:03:14.900 ,6,0,0.,4.8,1.,4.8,0.,4.8,0.,4.8
1980-11-16 06:03:19.700 ,6,0,0.,4.8,0.,4.8,0.,4.8,0.,4.8
1980-11-16 06:03:24.500 ,6,0,0.,4.8,0.,4.8,1.,4.8,0.,4.8
1980-11-16 06:03:29.300 ,6,0,0.,4.8,1.,4.8,0.,4.8,0.,4.8
1980-11-16 06:03:34.100 ,6,0,0.,4.8,0.,4.8,0.,4.8,0.,4.8
1980-11-16 06:03:38.900 ,6,0,0.,4.8,1.,4.8,0.,4.8,1.,4.8
1980-11-16 06:03:43.700 ,6,0,0.,4.8,0.,4.8,0.,4.8,0.,4.8
1980-11-16 06:03:48.500 ,5,0,0.,4.8,0.,4.8,0.,4.8,1.,4.8
1980-11-16 06:03:53.300 ,5,0,0.,4.8,2.,4.8,0.,4.8,0.,4.8
1980-11-16 06:03:58.100 ,5,0,0.,4.8,2.,4.8,0.,4.8,0.,4.8
1980-11-16 06:04:02.900 ,5,0,0.,4.8,1.,4.8,2.,4.8,0.,4.8
1980-11-16 06:04:07.700 ,5,0,0.,4.8,1.,4.8,0.,4.8,0.,4.8
1980-11-16 06:04:12.500 ,5,0,0.,4.8,0.,4.8,0.,4.8,0.,4.8
1980-11-16 06:04:17.300 ,5,0,0.,4.8,2.,4.8,0.,4.8,1.,4.8
1980-11-16 06:04:22.100 ,5,0,0.,4.8,1.,4.8,0.,4.8,0.,4.8
1980-11-16 06:04:26.900 ,5,0,0.,4.8,0.,4.8,1.,4.8,0.,4.8
1980-11-16 06:04:31.700 ,5,0,0.,4.8,2.,4.8,1.,4.8,0.,4.8
1980-11-16 06:04:36.500 ,4,0,0.,4.8,0.,4.8,1.,4.8,0.,4.8
1980-11-16 06:04:41.300 ,4,0,0.,4.8,1.,4.8,1.,4.8,0.,4.8
1980-11-16 06:04:46.100 ,4,0,0.,4.8,2.,4.8,0.,4.8,0.,4.8
1980-11-16 06:04:50.900 ,4,0,0.,4.8,0.,4.8,0.,4.8,0.,4.8
1980-11-16 06:04:55.700 ,4,0,0.,4.8,1.,4.8,0.,4.8,0.,4.8
1980-11-16 06:05:00.500 ,4,0,0.,4.8,1.,4.8,0.,4.8,0.,4.8
1980-11-16 06:05:05.300 ,4,0,0.,4.8,3.,4.8,1.,4.8,1.,4.8
1980-11-16 06:05:10.100 ,4,0,0.,4.8,0.,4.8,1.,4.8,0.,4.8
1980-11-16 06:05:14.900 ,4,0,0.,4.8,1.,4.8,0.,4.8,0.,4.8
1980-11-16 06:05:19.700 ,4,0,0.,4.8,1.,4.8,1.,4.8,0.,4.8
1980-11-16 06:05:24.500 ,3,0,0.,4.8,0.,4.8,1.,4.8,0.,4.8
1980-11-16 06:05:29.300 ,3,0,0.,4.8,2.,4.8,0.,4.8,0.,4.8
1980-11-16 06:05:34.100 ,3,0,0.,4.8,2.,4.8,1.,4.8,1.,4.8
1980-11-16 06:05:38.900 ,3,0,0.,4.8,0.,4.8,0.,4.8,0.,4.8
1980-11-16 06:05:43.700 ,3,0,0.,4.8,0.,4.8,0.,4.8,0.,4.8
1980-11-16 06:05:48.500 ,3,0,0.,4.8,2.,4.8,0.,4.8,0.,4.8
1980-11-16 06:05:53.300 ,3,0,0.,4.8,0.,4.8,0.,4.8,0.,4.8
1980-11-16 06:05:58.100 ,3,0,0.,4.8,1.,4.8,0.,4.8,0.,4.8
1980-11-16 06:06:02.900 ,3,0,0.,4.8,1.,4.8,0.,4.8,1.,4.8
1980-11-16 06:06:07.700 ,3,0,0.,4.8,0.,4.8,0.,4.8,0.,4.8
1980-11-16 06:06:12.500 ,2,0,0.,4.8,0.,4.8,1.,4.8,0.,4.8
1980-11-16 06:06:17.300 ,2,0,0.,4.8,2.,4.8,0.,4.8,0.,4.8
1980-11-16 06:06:22.100 ,2,0,0.,4.8,0.,4.8,1.,4.8,0.,4.8
1980-11-16 06:06:26.900 ,2,0,0.,4.8,1.,4.8,1.,4.8,1.,4.8
1980-11-16 06:06:31.700 ,2,0,0.,4.8,2.,4.8,0.,4.8,0.,4.8
1980-11-16 06:06:36.500 ,2,0,0.,4.8,1.,4.8,1.,4.8,0.,4.8
1980-11-16 06:06:41.300 ,2,0,0.,4.8,0.,4.8,0.,4.8,2.,4.8
1980-11-16 06:06:46.100 ,2,0,0.,4.8,0.,4.8,0.,4.8,0.,4.8
1980-11-16 06:06:50.900 ,2,0,0.,4.8,2.,4.8,0.,4.8,0.,4.8
1980-11-16 06:06:55.700 ,2,0,0.,4.8,3.,4.8,0.,4.8,2.,4.8
1980-11-16 06:07:00.500 ,1,0,0.,4.8,1.,4.8,0.,4.8,0.,4.8
1980-11-16 06:07:05.300 ,1,0,0.,4.8,2.,4.8,0.,4.8,0.,4.8
1980-11-16 06:07:10.100 ,1,0,0.,4.8,0.,4.8,1.,4.8,0.,4.8
1980-11-16 06:07:14.900 ,1,0,0.,4.8,0.,4.8,1.,4.8,0.,4.8
1980-11-16 06:07:19.700 ,1,0,0.,4.8,1.,4.8,0.,4.8,0.,4.8
1980-11-16 06:07:24.500 ,1,0,0.,4.8,0.,4.8,0.,4.8,0.,4.8
1980-11-16 06:07:29.300 ,1,0,0.,4.8,0.,4.8,0.,4.8,3.,4.8
1980-11-16 06:07:34.100 ,1,0,0.,4.8,1.,4.8,0.,4.8,0.,4.8
1980-11-16 06:07:38.900 ,1,0,0.,4.8,0.,4.8,0.,4.8,0.,4.8
1980-11-16 06:07:43.700 ,1,0,0.,4.8,3.,4.8,0.,4.8,0.,4.8
1980-11-16 06:07:48.500 ,0,0,0.,4.8,2.,4.8,1.,4.8,0.,4.8
1980-11-16 06:07:53.300 ,0,0,0.,4.8,2.,4.8,1.,4.8,0.,4.8
1980-11-16 06:07:58.100 ,0,0,0.,4.8,0.,4.8,1.,4.8,0.,4.8
1980-11-16 06:08:02.900 ,0,0,0.,4.8,1.,4.8,0.,4.8,0.,4.8
1980-11-16 06:08:07.700 ,0,0,0.,4.8,2.,4.8,1.,4.8,1.,4.8
1980-11-16 06:08:12.500 ,0,0,0.,4.8,2.,4.8,0.,4.8,0.,4.8
1980-11-16 06:08:17.300 ,0,0,0.,4.8,3.,4.8,1.,4.8,0.,4.8
1980-11-16 06:08:22.100 ,0,0,0.,4.8,2.,4.8,0.,4.8,0.,4.8
1980-11-16 06:08:26.900 ,0,0,0.,4.8,2.,4.8,1.,4.8,0.,4.8
1980-11-16 06:08:31.700 ,0,0,0.,4.8,0.,4.8,2.,4.8,0.,4.8
1980-11-16 06:08:36.500 ,0,0,0.,4.8,0.,4.8,0.,4.8,0.,4.8
1980-11-16 06:08:41.300 ,0,0,0.,4.8,2.,4.8,0.,4.8,0.,4.8
1980-11-16 06:08:46.100 ,0,0,0.,4.8,2.,4.8,1.,4.8,0.,4.8
1980-11-16 06:08:50.900 ,0,0,0.,4.8,2.,4.8,1.,4.8,0.,4.8
1980-11-16 06:08:55.700 ,0,0,0.,4.8,0.,4.8,0.,4.8,0.,4.8
1980-11-16 06:09:00.500 ,0,0,0.,4.8,1.,4.8,0.,4.8,0.,4.8
1980-11-16 06:09:05.300 ,0,0,0.,4.8,3.,4.8,0.,4.8,0.,4.8
1980-11-16 06:09:10.100 ,0,0,0.,4.8,0.,4.8,0.,4.8,1.,4.8
1980-11-16 06:09:14.900 ,0,0,0.,4.8,1.,4.8,1.,4.8,0.,4.8
1980-11-16 06:09:19.700 ,0,0,0.,4.8,2.,4.8,0.,4.8,0.,4.8
1980-11-16 06:09:24.500 ,1,0,0.,4.8,1.,4.8,0.,4.8,0.,4.8
1980-11-16 06:09:29.300 ,1,0,0.,4.8,1.,4.8,0.,4.8,1.,4.8
1980-11-16 06:09:34.100 ,1,0,0.,4.8,2.,4.8,0.,4.8,2.,4.8
1980-11-16 06:09:38.900 ,1,0,0.,4.8,3.,4.8,2.,4.8,0.,4.8
1980-11-16 06:09:43.700 ,1,0,0.,4.8,1.,4.8,0.,4.8,1.,4.8
1980-11-16 06:09:48.500 ,1,0,0.,4.8,0.,4.8,0.,4.8,0.,4.8
1980-11-16 06:09:53.300 ,1,0,0.,4.8,1.,4.8,0.,4.8,0.,4.8
1980-11-16 06:09:58.100 ,1,0,0.,4.8,0.,4.8,0.,4.8,0.,4.8
1980-11-16 06:10:02.900 ,1,0,0.,4.8,1.,4.8,1.,4.8,2.,4.8
1980-11-16 06:10:07.700 ,1,0,0.,4.8,0.,4.8,0.,4.8,0.,4.8
1980-11-16 06:10:12.500 ,2,0,0.,4.8,1.,4.8,0.,4.8,2.,4.8
1980-11-16 06:10:17.300 ,2,0,0.,4.8,3.,4.8,0.,4.8,1.,4.8
1980-11-16 06:10:22.100 ,2,0,0.,4.8,0.,4.8,1.,4.8,0.,4.8
1980-11-16 06:10:26.900 ,2,0,0.,4.8,1.,4.8,0.,4.8,2.,4.8
1980-11-16 06:10:31.700 ,2,0,0.,4.8,1.,4.8,0.,4.8,0.,4.8
1980-11-16 06:10:36.500 ,2,0,0.,4.8,3.,4.8,1.,4.8,0.,4.8
1980-11-16 06:10:41.300 ,2,0,0.,4.8,3.,4.8,1.,4.8,0.,4.8
1980-11-16 06:10:46.100 ,2,0,0.,4.8,1.,4.8,0.,4.8,0.,4.8
1980-11-16 06:10:50.900 ,2,0,0.,4.8,2.,4.8,0.,4.8,1.,4.8
1980-11-16 06:10:55.700 ,2,0,0.,4.8,0.,4.8,0.,4.8,0.,4.8
1980-11-16 06:11:00.500 ,3,0,0.,4.8,3.,4.8,0.,4.8,0.,4.8
1980-11-16 06:11:05.300 ,3,0,0.,4.8,2.,4.8,0.,4.8,1.,4.8
1980-11-16 06:11:10.100 ,3,0,0.,4.8,1.,4.8,0.,4.8,0.,4.8
1980-11-16 06:11:14.900 ,3,0,0.,4.8,0.,4.8,0.,4.8,0.,4.8
1980-11-16 06:11:19.700 ,3,0,0.,4.8,0.,4.8,0.,4.8,0.,4.8
1980-11-16 06:11:24.500 ,3,0,0.,4.8,0.,4.8,0.,4.8,0.,4.8
1980-11-16 06:11:29.300 ,3,0,0.,4.8,1.,4.8,1.,4.8,0.,4.8
1980-11-16 06:11:34.100 ,3,0,0.,4.8,0.,4.8,0.,4.8,1.,4.8
1980-11-16 06:11:38.900 ,3,0,0.,4.8,0.,4.8,0.,4.8,1.,4.8
1980-11-16 06:11:43.700 ,3,0,0.,4.8,0.,4.8,1.,4.8,1.,4.8
1980-11-16 06:11:48.500 ,4,0,0.,4.8,0.,4.8,0.,4.8,0.,4.8
1980-11-16 06:11:53.300 ,4,0,0.,4.8,2.,4.8,1.,4.8,0.,4.8
1980-11-16 06:11:58.100 ,4,0,0.,4.8,0.,4.8,0.,4.8,0.,4.8
1980-11-16 06:12:02.900 ,4,0,0.,4.8,0.,4.8,1.,4.8,0.,4.8
1980-11-16 06:12:07.700 ,4,0,0.,4.8,1.,4.8,0.,4.8,0.,4.8
1980-11-16 06:12:12.500 ,4,0,0.,4.8,1.,4.8,0.,4.8,0.,4.8
1980-11-16 06:12:17.300 ,4,0,0.,4.8,1.,4.8,1.,4.8,0.,4.8
1980-11-16 06:12:22.100 ,4,0,0.,4.8,1.,4.8,2.,4.8,0.,4.8
1980-11-16 06:12:26.900 ,4,0,0.,4.8,0.,4.8,0.,4.8,1.,4.8
1980-11-16 06:12:31.700 ,4,0,0.,4.8,0.,4.8,0.,4.8,0.,4.8
1980-11-16 06:12:36.500 ,5,0,0.,4.8,2.,4.8,1.,4.8,0.,4.8
1980-11-16 06:12:41.300 ,5,0,0.,4.8,1.,4.8,1.,4.8,0.,4.8
1980-11-16 06:12:46.100 ,5,0,0.,4.8,0.,4.8,0.,4.8,0.,4.8
1980-11-16 06:12:50.900 ,5,0,0.,4.8,0.,4.8,0.,4.8,0.,4.8
1980-11-16 06:12:55.700 ,5,0,0.,4.8,1.,4.8,0.,4.8,0.,4.8
1980-11-16 06:13:00.500 ,5,0,0.,4.8,0.,4.8,0.,4.8,0.,4.8
1980-11-16 06:13:05.300 ,5,0,0.,4.8,2.,4.8,0.,4.8,0.,4.8
1980-11-16 06:13:10.100 ,5,0,0.,4.8,0.,4.8,1.,4.8,0.,4.8
1980-11-16 06:13:14.900 ,5,0,0.,4.8,2.,4.8,2.,4.8,0.,4.8
1980-11-16 06:13:19.700 ,5,0,0.,4.8,0.,4.8,0.,4.8,0.,4.8
1980-11-16 06:14:12.500 ,0,0,0.,4.8,0.,4.8,0.,4.8,0.,4.8
1980-11-16 06:14:17.300 ,0,0,0.,4.8,0.,4.8,0.,4.8,0.,4.8
1980-11-16 06:14:22.100 ,0,0,0.,4.8,0.,4.8,0.,4.8,0.,4.8
1980-11-16 06:14:26.900 ,0,0,0.,4.8,1.,4.8,0.,4.8,0.,4.8
1980-11-16 06:14:31.700 ,0,0,0.,4.8,0.,4.8,0.,4.8,0.,4.8
1980-11-16 06:14:36.500 ,0,0,0.,4.8,1.,4.8,0.,4.8,0.,4.8
1980-11-16 06:14:41.300 ,0,0,0.,4.8,0.,4.8,0.,4.8,1.,4.8
1980-11-16 06:14:46.100 ,0,0,0.,4.8,1.,4.8,0.,4.8,0.,4.8
1980-11-16 06:14:50.900 ,0,0,0.,4.8,1.,4.8,0.,4.8,0.,4.8
1980-11-16 06:14:55.700 ,0,0,0.,4.8,0.,4.8,0.,4.8,0.,4.8
1980-11-16 06:15:00.500 ,7,0,0.,4.8,0.,4.8,0.,4.8,0.,4.8
1980-11-16 06:15:05.300 ,7,0,0.,4.8,0.,4.8,1.,4.8,0.,4.8
1980-11-16 06:15:10.100 ,7,0,0.,4.8,0.,4.8,1.,4.8,1.,4.8
1980-11-16 06:15:14.900 ,7,0,0.,4.8,1.,4.8,1.,4.8,0.,4.8
1980-11-16 06:15:19.700 ,7,0,0.,4.8,0.,4.8,2.,4.8,2.,4.8
1980-11-16 06:15:24.500 ,7,0,0.,4.8,0.,4.8,1.,4.8,0.,4.8
1980-11-16 06:15:29.300 ,7,0,0.,4.8,1.,4.8,1.,4.8,0.,4.8
1980-11-16 06:15:34.100 ,7,0,0.,4.8,1.,4.8,0.,4.8,1.,4.8
1980-11-16 06:15:38.900 ,7,0,0.,4.8,1.,4.8,0.,4.8,0.,4.8
1980-11-16 06:15:43.700 ,7,0,0.,4.8,0.,4.8,1.,4.8,0.,4.8
1980-11-16 06:15:48.500 ,6,0,0.,4.8,1.,4.8,2.,4.8,2.,4.8
1980-11-16 06:15:53.300 ,6,0,0.,4.8,0.,4.8,1.,4.8,0.,4.8
1980-11-16 06:15:58.100 ,6,0,0.,4.8,2.,4.8,0.,4.8,0.,4.8
1980-11-16 06:16:02.900 ,6,0,0.,4.8,1.,4.8,1.,4.8,0.,4.8
1980-11-16 06:16:07.700 ,6,0,0.,4.8,1.,4.8,0.,4.8,0.,4.8
1980-11-16 06:16:12.500 ,6,0,0.,4.8,2.,4.8,0.,4.8,1.,4.8
1980-11-16 06:16:17.300 ,6,0,0.,4.8,0.,4.8,0.,4.8,0.,4.8
1980-11-16 06:16:22.100 ,6,0,0.,4.8,2.,4.8,0.,4.8,1.,4.8
1980-11-16 06:16:26.900 ,6,0,0.,4.8,0.,4.8,0.,4.8,0.,4.8
1980-11-16 06:16:31.700 ,6,0,0.,4.8,0.,4.8,1.,4.8,0.,4.8
1980-11-16 06:16:36.500 ,5,0,0.,4.8,3.,4.8,0.,4.8,0.,4.8
1980-11-16 06:16:41.300 ,5,0,0.,4.8,1.,4.8,1.,4.8,0.,4.8
1980-11-16 06:16:46.100 ,5,0,0.,4.8,1.,4.8,0.,4.8,0.,4.8
1980-11-16 06:16:50.900 ,5,0,0.,4.8,1.,4.8,0.,4.8,0.,4.8
1980-11-16 06:16:55.700 ,5,0,0.,4.8,0.,4.8,1.,4.8,0.,4.8
1980-11-16 06:17:00.500 ,5,0,0.,4.8,2.,4.8,0.,4.8,0.,4.8
1980-11-16 06:17:05.300 ,5,0,0.,4.8,1.,4.8,0.,4.8,0.,4.8
1980-11-16 06:17:10.100 ,5,0,0.,4.8,0.,4.8,0.,4.8,0.,4.8
1980-11-16 06:17:14.900 ,5,0,0.,4.8,1.,4.8,1.,4.8,0.,4.8
1980-11-16 06:17:19.700 ,5,0,0.,4.8,2.,4.8,1.,4.8,0.,4.8
1980-11-16 06:17:24.500 ,4,0,0.,4.8,0.,4.8,0.,4.8,0.,4.8
1980-11-16 06:17:29.300 ,4,0,0.,4.8,0.,4.8,0.,4.8,0.,4.8
1980-11-16 06:17:34.100 ,4,0,0.,4.8,0.,4.8,0.,4.8,0.,4.8
1980-11-16 06:17:38.900 ,4,0,0.,4.8,0.,4.8,0.,4.8,0.,4.8
1980-11-16 06:17:43.700 ,4,0,0.,4.8,0.,4.8,1.,4.8,0.,4.8
1980-11-16 06:17:48.500 ,4,0,0.,4.8,2.,4.8,1.,4.8,0.,4.8
1980-11-16 06:17:53.300 ,4,0,0.,4.8,1.,4.8,0.,4.8,0.,4.8
1980-11-16 06:17:58.100 ,4,0,0.,4.8,1.,4.8,0.,4.8,0.,4.8
1980-11-16 06:18:02.900 ,4,0,0.,4.8,0.,4.8,1.,4.8,0.,4.8
1980-11-16 06:18:07.700 ,4,0,0.,4.8,0.,4.8,0.,4.8,0.,4.8
1980-11-16 06:18:12.500 ,3,0,0.,4.8,2.,4.8,0.,4.8,0.,4.8
1980-11-16 06:18:17.300 ,3,0,0.,4.8,0.,4.8,0.,4.8,0.,4.8
1980-11-16 06:18:22.100 ,3,0,0.,4.8,1.,4.8,0.,4.8,0.,4.8
1980-11-16 06:18:26.900 ,3,0,0.,4.8,3.,4.8,0.,4.8,0.,4.8
1980-11-16 06:18:31.700 ,3,0,0.,4.8,0.,4.8,0.,4.8,0.,4.8
1980-11-16 06:18:36.500 ,3,0,0.,4.8,0.,4.8,1.,4.8,0.,4.8
1980-11-16 06:18:41.300 ,3,0,0.,4.8,2.,4.8,0.,4.8,0.,4.8
1980-11-16 06:18:46.100 ,3,0,0.,4.8,0.,4.8,0.,4.8,1.,4.8
1980-11-16 06:18:50.900 ,3,0,0.,4.8,0.,4.8,0.,4.8,0.,4.8
1980-11-16 06:18:55.700 ,3,0,0.,4.8,0.,4.8,1.,4.8,0.,4.8
1980-11-16 06:19:00.500 ,2,0,0.,4.8,2.,4.8,0.,4.8,0.,4.8
1980-11-16 06:19:05.300 ,2,0,0.,4.8,0.,4.8,2.,4.8,0.,4.8
1980-11-16 06:19:10.100 ,2,0,0.,4.8,1.,4.8,0.,4.8,0.,4.8
1980-11-16 06:19:14.900 ,2,0,0.,4.8,0.,4.8,0.,4.8,0.,4.8
1980-11-16 06:19:19.700 ,2,0,0.,4.8,1.,4.8,0.,4.8,0.,4.8
1980-11-16 06:19:24.500 ,2,0,0.,4.8,2.,4.8,0.,4.8,0.,4.8
1980-11-16 06:19:29.300 ,2,0,0.,4.8,2.,4.8,0.,4.8,0.,4.8
1980-11-16 06:19:34.100 ,2,0,0.,4.8,2.,4.8,1.,4.8,0.,4.8
1980-11-16 06:19:38.900 ,2,0,0.,4.8,2.,4.8,0.,4.8,0.,4.8
1980-11-16 06:19:43.700 ,2,0,0.,4.8,1.,4.8,0.,4.8,0.,4.8
1980-11-16 06:19:48.500 ,1,0,0.,4.8,1.,4.8,0.,4.8,0.,4.8
1980-11-16 06:19:53.300 ,1,0,0.,4.8,3.,4.8,1.,4.8,0.,4.8
1980-11-16 06:19:58.100 ,1,0,0.,4.8,1.,4.8,1.,4.8,0.,4.8
1980-11-16 06:20:02.900 ,1,0,0.,4.8,2.,4.8,1.,4.8,0.,4.8
1980-11-16 06:20:07.700 ,1,0,0.,4.8,0.,4.8,0.,4.8,0.,4.8
1980-11-16 06:20:12.500 ,1,0,0.,4.8,0.,4.8,0.,4.8,0.,4.8
1980-11-16 06:20:17.300 ,1,0,0.,4.8,0.,4.8,1.,4.8,0.,4.8
1980-11-16 06:20:22.100 ,1,0,0.,4.8,2.,4.8,2.,4.8,0.,4.8
1980-11-16 06:20:26.900 ,1,0,0.,4.8,2.,4.8,0.,4.8,0.,4.8
1980-11-16 06:20:31.700 ,1,0,0.,4.8,0.,4.8,0.,4.8,0.,4.8
1980-11-16 06:20:36.500 ,0,0,0.,4.8,2.,4.8,0.,4.8,2.,4.8
1980-11-16 06:20:41.300 ,0,0,0.,4.8,1.,4.8,0.,4.8,0.,4.8
1980-11-16 06:20:46.100 ,0,0,0.,4.8,2.,4.8,1.,4.8,1.,4.8
1980-11-16 06:20:50.900 ,0,0,0.,4.8,1.,4.8,0.,4.8,0.,4.8
1980-11-16 06:20:55.700 ,0,0,0.,4.8,0.,4.8,0.,4.8,1.,4.8
1980-11-16 06:21:00.500 ,0,0,0.,4.8,2.,4.8,0.,4.8,2.,4.8
1980-11-16 06:21:05.300 ,0,0,0.,4.8,1.,4.8,0.,4.8,0.,4.8
1980-11-16 06:21:10.100 ,0,0,0.,4.8,1.,4.8,0.,4.8,0.,4.8
1980-11-16 06:21:14.900 ,0,0,0.,4.8,0.,4.8,0.,4.8,0.,4.8
1980-11-16 06:21:19.700 ,0,0,0.,4.8,1.,4.8,1.,4.8,0.,4.8
1980-11-16 06:21:24.500 ,0,0,0.,4.8,1.,4.8,2.,4.8,1.,4.8
1980-11-16 06:21:29.300 ,0,0,0.,4.8,1.,4.8,1.,4.8,0.,4.8
1980-11-16 06:21:34.100 ,0,0,0.,4.8,1.,4.8,1.,4.8,0.,4.8
1980-11-16 06:21:38.900 ,0,0,0.,4.8,1.,4.8,0.,4.8,1.,4.8
1980-11-16 06:21:43.700 ,0,0,0.,4.8,4.,4.8,0.,4.8,0.,4.8
1980-11-16 06:21:48.500 ,0,0,0.,4.8,0.,4.8,0.,4.8,0.,4.8
1980-11-16 06:21:53.300 ,0,0,0.,4.8,2.,4.8,0.,4.8,0.,4.8
1980-11-16 06:21:58.100 ,0,0,0.,4.8,0.,4.8,1.,4.8,0.,4.8
1980-11-16 06:22:02.900 ,0,0,0.,4.8,1.,4.8,1.,4.8,0.,4.8
1980-11-16 06:22:07.700 ,0,0,0.,4.8,3.,4.8,1.,4.8,0.,4.8
1980-11-16 06:22:12.500 ,1,0,0.,4.8,0.,4.8,0.,4.8,0.,4.8
1980-11-16 06:22:17.300 ,1,0,0.,4.8,2.,4.8,3.,4.8,0.,4.8
1980-11-16 06:22:22.100 ,1,0,0.,4.8,1.,4.8,1.,4.8,1.,4.8
1980-11-16 06:22:26.900 ,1,0,0.,4.8,1.,4.8,1.,4.8,0.,4.8
1980-11-16 06:22:31.700 ,1,0,0.,4.8,1.,4.8,0.,4.8,0.,4.8
1980-11-16 06:22:36.500 ,1,0,0.,4.8,1.,4.8,0.,4.8,0.,4.8
1980-11-16 06:22:41.300 ,1,0,0.,4.8,1.,4.8,0.,4.8,0.,4.8
1980-11-16 06:22:46.100 ,1,0,0.,4.8,2.,4.8,0.,4.8,0.,4.8
1980-11-16 06:22:50.900 ,1,0,0.,4.8,0.,4.8,0.,4.8,1.,4.8
1980-11-16 06:22:55.700 ,1,0,0.,4.8,3.,4.8,0.,4.8,1.,4.8
1980-11-16 06:23:00.500 ,2,0,0.,4.8,0.,4.8,1.,4.8,0.,4.8
1980-11-16 06:23:05.300 ,2,0,0.,4.8,2.,4.8,1.,4.8,0.,4.8
1980-11-16 06:23:10.100 ,2,0,0.,4.8,2.,4.8,1.,4.8,1.,4.8
1980-11-16 06:23:14.900 ,2,0,0.,4.8,1.,4.8,0.,4.8,1.,4.8
1980-11-16 06:23:19.700 ,2,0,0.,4.8,0.,4.8,0.,4.8,0.,4.8
1980-11-16 06:23:24.500 ,2,0,0.,4.8,0.,4.8,0.,4.8,0.,4.8
1980-11-16 06:23:29.300 ,2,0,0.,4.8,0.,4.8,1.,4.8,0.,4.8
1980-11-16 06:23:34.100 ,2,0,0.,4.8,2.,4.8,0.,4.8,0.,4.8
1980-11-16 06:23:38.900 ,2,0,0.,4.8,1.,4.8,0.,4.8,0.,4.8
1980-11-16 06:23:43.700 ,2,0,0.,4.8,1.,4.8,0.,4.8,0.,4.8
1980-11-16 06:23:48.500 ,3,0,0.,4.8,0.,4.8,0.,4.8,0.,4.8
1980-11-16 06:23:53.300 ,3,0,0.,4.8,0.,4.8,1.,4.8,0.,4.8
1980-11-16 06:23:58.100 ,3,0,0.,4.8,2.,4.8,2.,4.8,0.,4.8
1980-11-16 06:24:02.900 ,3,0,0.,4.8,1.,4.8,1.,4.8,0.,4.8
1980-11-16 06:24:07.700 ,3,0,0.,4.8,0.,4.8,0.,4.8,0.,4.8
1980-11-16 06:24:12.500 ,3,0,0.,4.8,1.,4.8,0.,4.8,1.,4.8
1980-11-16 06:24:17.300 ,3,0,0.,4.8,0.,4.8,0.,4.8,0.,4.8
1980-11-16 06:24:22.100 ,3,0,0.,4.8,2.,4.8,0.,4.8,2.,4.8
1980-11-16 06:24:26.900 ,3,0,0.,4.8,0.,4.8,3.,4.8,1.,4.8
1980-11-16 06:24:31.700 ,3,0,0.,4.8,1.,4.8,0.,4.8,0.,4.8
1980-11-16 06:24:36.500 ,4,0,0.,4.8,1.,4.8,0.,4.8,0.,4.8
1980-11-16 06:24:41.300 ,4,0,0.,4.8,0.,4.8,0.,4.8,0.,4.8
1980-11-16 06:24:46.100 ,4,0,0.,4.8,0.,4.8,0.,4.8,0.,4.8
1980-11-16 06:24:50.900 ,4,0,0.,4.8,0.,4.8,0.,4.8,0.,4.8
1980-11-16 06:24:55.700 ,4,0,0.,4.8,2.,4.8,0.,4.8,0.,4.8
1980-11-16 06:25:00.500 ,4,0,0.,4.8,1.,4.8,1.,4.8,0.,4.8
1980-11-16 06:25:05.300 ,4,0,0.,4.8,1.,4.8,0.,4.8,0.,4.8
1980-11-16 06:25:10.100 ,4,0,0.,4.8,1.,4.8,0.,4.8,0.,4.8
1980-11-16 06:25:14.900 ,4,0,0.,4.8,0.,4.8,0.,4.8,0.,4.8
1980-11-16 06:25:19.700 ,4,0,0.,4.8,1.,4.8,1.,4.8,0.,4.8
1980-11-16 06:25:24.500 ,5,0,0.,4.8,0.,4.8,0.,4.8,0.,4.8
1980-11-16 06:25:29.300 ,5,0,0.,4.8,0.,4.8,0.,4.8,0.,4.8
1980-11-16 06:25:34.100 ,5,0,0.,4.8,0.,4.8,1.,4.8,0.,4.8
1980-11-16 06:25:38.900 ,5,0,0.,4.8,0.,4.8,1.,4.8,1.,4.8
1980-11-16 06:25:43.700 ,5,0,0.,4.8,0.,4.8,0.,4.8,0.,4.8
1980-11-16 06:25:48.500 ,5,0,0.,4.8,2.,4.8,0.,4.8,2.,4.8
1980-11-16 06:25:53.300 ,5,0,0.,4.8,2.,4.8,0.,4.8,0.,4.8
1980-11-16 06:25:58.100 ,5,0,0.,4.8,2.,4.8,0.,4.8,0.,4.8
1980-11-16 06:26:02.900 ,5,0,0.,4.8,0.,4.8,0.,4.8,1.,4.8
1980-11-16 06:26:07.700 ,5,0,0.,4.8,0.,4.8,0.,4.8,0.,4.8
1980-11-16 06:26:12.500 ,6,0,0.,4.8,0.,4.8,1.,4.8,1.,4.8
1980-11-16 06:26:17.300 ,6,0,0.,4.8,0.,4.8,0.,4.8,0.,4.8
1980-11-16 06:26:22.100 ,6,0,0.,4.8,1.,4.8,1.,4.8,2.,4.8
1980-11-16 06:26:26.900 ,6,0,0.,4.8,3.,4.8,1.,4.8,0.,4.8
1980-11-16 06:26:31.700 ,6,0,0.,4.8,1.,4.8,0.,4.8,0.,4.8
1980-11-16 06:26:36.500 ,6,0,0.,4.8,1.,4.8,1.,4.8,0.,4.8
1980-11-16 06:26:41.300 ,6,0,0.,4.8,2.,4.8,0.,4.8,1.,4.8
1980-11-16 06:26:46.100 ,6,0,0.,4.8,3.,4.8,1.,4.8,1.,4.8
1980-11-16 06:26:50.900 ,6,0,0.,4.8,0.,4.8,1.,4.8,0.,4.8
1980-11-16 06:26:55.700 ,6,0,0.,4.8,1.,4.8,1.,4.8,2.,4.8
1980-11-16 06:27:00.500 ,7,0,0.,4.8,2.,4.8,1.,4.8,0.,4.8
1980-11-16 06:27:05.300 ,7,0,0.,4.8,1.,4.8,0.,4.8,0.,4.8
1980-11-16 06:27:10.100 ,7,0,0.,4.8,0.,4.8,0.,4.8,0.,4.8
1980-11-16 06:27:14.900 ,7,0,0.,4.8,0.,4.8,2.,4.8,0.,4.8
1980-11-16 06:27:19.700 ,7,0,0.,4.8,0.,4.8,0.,4.8,1.,4.8
1980-11-16 06:27:24.500 ,7,0,0.,4.8,1.,4.8,0.,4.8,0.,4.8
1980-11-16 06:27:29.300 ,7,0,0.,4.8,0.,4.8,0.,4.8,0.,4.8
1980-11-16 06:27:34.100 ,7,0,0.,4.8,1.,4.8,0.,4.8,0.,4.8
1980-11-16 06:27:38.900 ,7,0,0.,4.8,0.,4.8,0.,4.8,0.,4.8
1980-11-16 06:27:43.700 ,7,0,0.,4.8,0.,4.8,1.,4.8,0.,4.8
1980-11-16 06:27:48.500 ,7,0,0.,4.8,0.,4.8,0.,4.8,1.,4.8
1980-11-16 06:27:53.300 ,7,0,0.,4.8,0.,4.8,0.,4.8,1.,4.8
1980-11-16 06:27:58.100 ,7,0,0.,4.8,0.,4.8,1.,4.8,0.,4.8
1980-11-16 06:28:02.900 ,7,0,0.,4.8,0.,4.8,1.,4.8,0.,4.8
1980-11-16 06:28:07.700 ,7,0,0.,4.8,0.,4.8,0.,4.8,1.,4.8
1980-11-16 06:28:12.500 ,7,0,0.,4.8,0.,4.8,2.,4.8,0.,4.8
1980-11-16 06:28:17.300 ,7,0,0.,4.8,1.,4.8,0.,4.8,1.,4.8
1980-11-16 06:28:22.100 ,7,0,0.,4.8,0.,4.8,0.,4.8,1.,4.8
1980-11-16 06:28:26.900 ,7,0,0.,4.8,0.,4.8,0.,4.8,1.,4.8
1980-11-16 06:28:31.700 ,7,0,0.,4.8,0.,4.8,0.,4.8,0.,4.8
1980-11-16 06:28:36.500 ,6,0,0.,4.8,1.,4.8,0.,4.8,1.,4.8
1980-11-16 06:28:41.300 ,6,0,0.,4.8,2.,4.8,0.,4.8,0.,4.8
1980-11-16 06:28:46.100 ,6,0,0.,4.8,2.,4.8,0.,4.8,1.,4.8
1980-11-16 06:28:50.900 ,6,0,0.,4.8,1.,4.8,0.,4.8,0.,4.8
1980-11-16 06:28:55.700 ,6,0,0.,4.8,0.,4.8,0.,4.8,0.,4.8
1980-11-16 06:29:00.500 ,6,0,0.,4.8,1.,4.8,0.,4.8,0.,4.8
1980-11-16 06:29:05.300 ,6,0,0.,4.8,1.,4.8,0.,4.8,0.,4.8
1980-11-16 06:29:10.100 ,6,0,0.,4.8,1.,4.8,1.,4.8,0.,4.8
1980-11-16 06:29:14.900 ,6,0,0.,4.8,0.,4.8,0.,4.8,0.,4.8
1980-11-16 06:29:19.700 ,6,0,0.,4.8,0.,4.8,0.,4.8,0.,4.8
1980-11-16 06:29:24.500 ,5,0,0.,4.8,1.,4.8,1.,4.8,0.,4.8
1980-11-16 06:29:29.300 ,5,0,0.,4.8,0.,4.8,0.,4.8,0.,4.8
1980-11-16 06:29:34.100 ,5,0,0.,4.8,1.,4.8,0.,4.8,0.,4.8
1980-11-16 06:29:38.900 ,5,0,0.,4.8,2.,4.8,1.,4.8,0.,4.8
1980-11-16 06:29:43.700 ,5,0,0.,4.8,0.,4.8,0.,4.8,1.,4.8
1980-11-16 06:29:48.500 ,5,0,0.,4.8,3.,4.8,0.,4.8,0.,4.8
1980-11-16 06:29:53.300 ,5,0,0.,4.8,1.,4.8,0.,4.8,0.,4.8
1980-11-16 06:29:58.100 ,5,0,0.,4.8,1.,4.8,0.,4.8,0.,4.8
1980-11-16 06:30:02.900 ,5,0,0.,4.8,0.,4.8,0.,4.8,0.,4.8
1980-11-16 06:30:07.700 ,5,0,0.,4.8,0.,4.8,0.,4.8,0.,4.8
1980-11-16 06:30:12.500 ,4,0,0.,4.8,1.,4.8,0.,4.8,0.,4.8
1980-11-16 06:30:17.300 ,4,0,0.,4.8,0.,4.8,0.,4.8,0.,4.8
1980-11-16 06:30:22.100 ,4,0,0.,4.8,0.,4.8,0.,4.8,0.,4.8
1980-11-16 06:30:26.900 ,4,0,0.,4.8,1.,4.8,0.,4.8,0.,4.8
1980-11-16 06:30:31.700 ,4,0,0.,4.8,1.,4.8,0.,4.8,0.,4.8
1980-11-16 06:30:36.500 ,4,0,0.,4.8,1.,4.8,0.,4.8,0.,4.8
1980-11-16 06:30:41.300 ,4,0,0.,4.8,0.,4.8,0.,4.8,0.,4.8
1980-11-16 06:30:46.100 ,4,0,0.,4.8,0.,4.8,0.,4.8,0.,4.8
1980-11-16 06:30:50.900 ,4,0,0.,4.8,0.,4.8,0.,4.8,0.,4.8
1980-11-16 06:30:55.700 ,4,0,0.,4.8,1.,4.8,1.,4.8,0.,4.8
1980-11-16 06:31:00.500 ,3,0,0.,4.8,1.,4.8,0.,4.8,1.,4.8
1980-11-16 06:31:05.300 ,3,0,0.,4.8,3.,4.8,1.,4.8,0.,4.8
1980-11-16 06:31:10.100 ,3,0,0.,4.8,0.,4.8,0.,4.8,0.,4.8
1980-11-16 06:31:14.900 ,3,0,0.,4.8,1.,4.8,0.,4.8,0.,4.8
1980-11-16 06:31:19.700 ,3,0,0.,4.8,0.,4.8,1.,4.8,0.,4.8
1980-11-16 06:31:24.500 ,3,0,0.,4.8,0.,4.8,0.,4.8,0.,4.8
1980-11-16 06:31:29.300 ,3,0,0.,4.8,2.,4.8,0.,4.8,0.,4.8
1980-11-16 06:31:34.100 ,3,0,0.,4.8,1.,4.8,1.,4.8,0.,4.8
1980-11-16 06:31:38.900 ,3,0,0.,4.8,1.,4.8,0.,4.8,0.,4.8
1980-11-16 06:31:43.700 ,3,0,0.,4.8,0.,4.8,1.,4.8,0.,4.8
1980-11-16 06:31:48.500 ,2,0,0.,4.8,0.,4.8,0.,4.8,0.,4.8
1980-11-16 06:31:53.300 ,2,0,0.,4.8,1.,4.8,0.,4.8,0.,4.8
1980-11-16 06:31:58.100 ,2,0,0.,4.8,1.,4.8,0.,4.8,0.,4.8
1980-11-16 06:32:02.900 ,2,0,0.,4.8,0.,4.8,1.,4.8,0.,4.8
1980-11-16 06:32:07.700 ,2,0,0.,4.8,0.,4.8,1.,4.8,0.,4.8
1980-11-16 06:32:12.500 ,2,0,0.,4.8,0.,4.8,0.,4.8,0.,4.8
1980-11-16 06:32:17.300 ,2,0,0.,4.8,1.,4.8,0.,4.8,0.,4.8
1980-11-16 06:32:22.100 ,2,0,0.,4.8,0.,4.8,1.,4.8,0.,4.8
1980-11-16 06:32:26.900 ,2,0,0.,4.8,1.,4.8,1.,4.8,0.,4.8
1980-11-16 06:32:31.700 ,2,0,0.,4.8,1.,4.8,1.,4.8,0.,4.8
1980-11-16 06:32:36.500 ,1,0,0.,4.8,0.,4.8,0.,4.8,0.,4.8
1980-11-16 06:32:41.300 ,1,0,0.,4.8,0.,4.8,0.,4.8,0.,4.8
1980-11-16 06:32:46.100 ,1,0,0.,4.8,4.,4.8,0.,4.8,0.,4.8
1980-11-16 06:32:50.900 ,1,0,0.,4.8,1.,4.8,1.,4.8,2.,4.8
1980-11-16 06:32:55.700 ,1,0,0.,4.8,2.,4.8,0.,4.8,1.,4.8
1980-11-16 06:33:00.500 ,1,0,0.,4.8,1.,4.8,0.,4.8,1.,4.8
1980-11-16 06:33:05.300 ,1,0,0.,4.8,1.,4.8,0.,4.8,1.,4.8
1980-11-16 06:33:10.100 ,1,0,0.,4.8,1.,4.8,0.,4.8,1.,4.8
1980-11-16 06:33:14.900 ,1,0,0.,4.8,1.,4.8,1.,4.8,0.,4.8
1980-11-16 06:33:19.700 ,1,0,0.,4.8,3.,4.8,0.,4.8,0.,4.8
1980-11-16 06:33:24.500 ,0,0,0.,4.8,2.,4.8,0.,4.8,0.,4.8
1980-11-16 06:33:29.300 ,0,0,0.,4.8,0.,4.8,0.,4.8,0.,4.8
1980-11-16 06:33:34.100 ,0,0,0.,4.8,3.,4.8,0.,4.8,0.,4.8
1980-11-16 06:33:38.900 ,0,0,0.,4.8,1.,4.8,1.,4.8,0.,4.8
1980-11-16 06:33:43.700 ,0,0,0.,4.8,0.,4.8,1.,4.8,0.,4.8
1980-11-16 06:33:48.500 ,0,0,0.,4.8,4.,4.8,0.,4.8,0.,4.8
1980-11-16 06:33:53.300 ,0,0,0.,4.8,0.,4.8,0.,4.8,1.,4.8